Flag for Canada Weather past 2 weeks in Cape Dorset, Nunavut Territory, Canada

Now
48 °F

Partly sunny.


Feels Like: 40 °F
Forecast: 44 / 54 °F
Wind: 24 mph from East

Location: Cape Dorset

Current Time: Jul 24, 2014 at 11:46:12 AM

Latest Report: Jul 24, 2014 at 11:00 AM


Visibility: 15 mi

Pressure: 29.65 "Hg

Humidity: 94%

Dew point: 46 °F

Location of Cape DorsetLocation

Historic Weather in Cape Dorset — Graph

°F

Cape Dorset temperature yesterday

Maximum temperature yesterday: 57 °F (at 6:53 PM)
Minimum temperature yesterday: 45 °F (at 5:00 AM)
Average temperature yesterday: 49 °F

Past Weeks' High & Low Weather Summary

 TemperatureHumidityPressure
High68 °F (Jul 13, 3:00 PM)100% (Jul 16, 6:53 AM)30.11 "Hg (Jul 16, 6:53 AM)
Low37 °F (Jul 17, 12:00 AM)22% (Jul 14, 2:00 PM)29.39 "Hg (Jul 23, 6:00 AM)
Average49 °F73%29.75 "Hg
* Reported Jul 9 10:00 AM — Jul 24 10:00 AM, Cape Dorset, Weather by CustomWeather, © 2014

Note: Actual official high and low records may vary slightly from our data, if they occured in-between our weather recording intervals... More about our weather records

Advertising

Cape Dorset weather history for previous 24 hours

 ConditionsComfort  
Time TempWeatherWind HumidityBarometerVisibility
10:00 AM
Jul 24
46 °FDrizzle. Fog.26 mphN/A29.64 "Hg0 mi
9:00 AM48 °FLight rain. Fog.21 mphN/A29.63 "Hg2 mi
8:52 AM48 °FLight rain. Fog.21 mphN/A29.63 "Hg2 mi
8:00 AM50 °FOvercast.12 mph88%29.62 "Hg15 mi
7:00 AM50 °FMostly cloudy.10 mph94%29.62 "Hg15 mi
6:53 AM50 °FCloudy.13 mph94%29.62 "Hg9 mi
6:00 AM50 °FOvercast.7 mph94%29.61 "Hg9 mi
5:00 AM46 °FLow clouds.3 mph100%29.61 "Hg9 mi
4:47 AM46 °FLow clouds.3 mph100%29.61 "Hg9 mi
4:00 AM46 °FLow clouds.2 mphN/A29.60 "Hg9 mi
3:00 AM45 °FLow clouds.3 mphN/A29.61 "Hg3 mi
2:00 AM45 °FMostly cloudy.3 mphN/A29.59 "Hg9 mi
1:00 AM45 °FMostly cloudy.9 mph100%29.58 "Hg9 mi
12:00 AM45 °FMostly cloudy.7 mph100%29.56 "Hg9 mi
11:00 PM
Jul 23
46 °FMostly cloudy.9 mph93%29.55 "Hg9 mi
10:58 PM46 °FMostly cloudy.9 mph93%29.55 "Hg9 mi
10:04 PM50 °FLight rain. Fog.17 mph88%29.53 "Hg6 mi
9:51 PM48 °FLight rain. Mostly cloudy.16 mphN/A29.53 "Hg3 mi
9:00 PM48 °FMore clouds than sun.15 mph100%29.51 "Hg9 mi
8:59 PM48 °FCloudy.16 mph100%29.51 "Hg9 mi
8:00 PM57 °FOvercast.13 mph94%29.48 "Hg9 mi
7:00 PM55 °FLight rain. Fog.8 mph94%29.48 "Hg4 mi
6:53 PM57 °FLight rain. Fog.12 mph88%29.48 "Hg5 mi
6:00 PM55 °FOvercast.6 mph88%29.47 "Hg9 mi
5:00 PM50 °FBroken clouds.5 mphN/A29.46 "Hg8 mi
4:00 PM46 °FFog.9 mphN/A29.44 "Hg1 mi
3:50 PM46 °FFog.10 mphN/A29.44 "Hg1 mi
3:00 PM48 °FFog.20 mph94%29.42 "Hg0 mi
2:58 PM50 °FFog.21 mph94%29.42 "Hg0 mi
2:00 PM54 °FMostly cloudy.9 mph94%29.41 "Hg15 mi
1:51 PM52 °FMostly cloudy.9 mph100%29.41 "Hg15 mi
1:00 PM50 °FLow clouds.8 mphN/A29.41 "Hg15 mi
12:00 PM50 °FLow clouds.6 mph94%29.40 "Hg15 mi
11:00 AM48 °FLow clouds.5 mph94%29.40 "Hg15 mi
Weather by CustomWeather, © 2014

See weather overviewHow to use our weather pages